Back to catalog

HYPSO-1

AliveSciencePO
NORAD 51053·PAYLOAD·🇳🇴 Norway

Launched Jan 13, 2022 from Cape Canaveral Space Force Station

Loading…

Next Passes (next 24 hours)

TLE

FreshSource: Space-Track

Epoch: Sep 13, 2026, 21:42 UTC

1 51053U 22002BX  26256.90460767  .00144244  00000-0  55291-3 0  9994
2 51053  97.2720 342.5608 0003749 266.7223  93.3620 15.87039366260900

Track HYPSO-1 in real time with AllMySat

Download on the App Store